Hourly Data Report for December 09, 2000

SHERBROOKE A
QUEBEC

45°26'00.000" N
71°41'00.000" W
241.40 m
7028124
71610
YSC

Download Data

Hourly Data (December 2000)
Hourly Data Report for December 9, 2000
TIME
LST
Temp Definition
°C
Dew Point Definition
°C
Rel Hum Definition
%
Precip. Amount Definition
mm

Wind Dir Definition
10's deg

Wind Spd Definition
km/h
Visibility Definition
km
Stn Press Definition
kPa
Hmdx Definition


Wind Chill Definition


Weather Definition


00:00 -23.0 -26.6 72   9 6 15.0 99.12   -28  
01:00 -22.6 -26.2 72   10 4 15.0 99.15   -26  
02:00 -23.1 -26.7 72     0 15.0 99.22      
03:00 -23.3 -27.0 72     0 15.0 99.25      
04:00 -22.9 -26.5 72   11 7 15.0 99.28   -29  
05:00 -22.6 -26.2 72     0 15.0 99.38      
06:00 -22.7 -26.3 72     0 15.0 99.45      
07:00 -22.3 -26.0 72     0 8.0 99.55      
08:00 -22.6 -26.2 72     0 24.1 99.61     Mainly Clear
09:00 -19.8 -23.4 73     0 24.1 99.71     Mainly Clear
10:00 -16.6 -20.8 70   25 6 24.1 99.78   -21 Mainly Clear
11:00 -15.1 -20.2 65   26 9 24.1 99.74   -21 Mainly Clear
12:00 -13.4 -19.8 59   28 22 24.1 99.74   -23 Mainly Clear
13:00 -12.7 -20.8 51   25 20 24.1 99.74   -21 Mainly Clear
14:00 -13.2 -21.7 49   27 24 24.1 99.81   -23 Mainly Clear
15:00 -13.3 -21.6 50   26 13 24.1 99.84   -20 Mainly Clear
16:00 -14.8 -22.2 53   26 13 24.1 99.91   -22 Clear
17:00 -15.9 -21.7 61   26 11 24.1 99.98   -23 Clear
18:00 -16.7 -21.4 67   24 6 15.0 100.01   -21  
19:00 -18.5 -21.9 75   21 6 15.0 100.04   -23  
20:00 -18.1 -22.3 70     0 15.0 100.04      
21:00 -19.6 -22.8 76     0 15.0 100.04      
22:00 -20.5 -23.8 75   10 4 15.0 100.11   -24  
23:00 -20.5 -23.7 75   8 4 15.0 100.11   -24  

Notes on Data Quality.

Legend

  • E = Estimated
  • M = Missing
  • NA = Not Available*
  • [empty] = Indicates an unobserved value
Date modified: